www.pogodaiklimat.ru

Погода и климат >> Архив погоды >> Италия >> Дечимоманну


ПОГОДА в Дечимоманну

  • Прогноз погоды в Дечимоманну
  • Монитор погоды в Дечимоманну

АРХИВ ПОГОДЫ в Дечимоманну

Время (UTC), дата Ветер
(напр.,м/с)
 
Видим.   Явления Облачность Т
(С)
Тd
(С)
f
(%)
Тe
(С)
Тes
(С)
Комфортность P
(гПа)
Po
(гПа)
Тmin
(С)
Tmax
(С)
R
(мм)
R24
(мм)
S
(см)
12 13.06 Ю 7 20 км ясно +28.2 +21.5 67 +36 +42 очень
душно
1014.6 1011.9
15 13.06 ЮВ 7 20 км ясно +29.0 +18.8 54 +34 +37 очень
душно
1013.0 1010.3
18 13.06 Ю 5 25 км ясно +28.0 +15.3 46 +31 +31 душно 1013.0 1010.3 +29.6
21 13.06 ЮВ 3 16 км ясно +24.2 +17.2 65 +28 +28 душно 1013.5 1010.8
00 14.06 ЮЗ 1 15 км 4/0 2000 м
[Ac cuf]
+24.0 +18.2 70 +28 +28 душно 1013.7 1011.0
03 14.06 В 1 16 км ясно +20.2 +17.6 85 +24 +24 комфорт 1011.9 1009.1
06 14.06 Ю 4 25 км 6/0
[Ci fib]
+25.2 +19.4 70 +30 +32 душно 1012.2 1009.5 +19.6
09 14.06 ЮВ 6 20 км 9/1 1200 м
[Sc Ac trans Ci fib]
+31.6 +21.5 55 +40 +42 очень
душно
1012.0 1009.3
12 14.06 ЮВ 7 20 км 9/4 900 м
[Cu med, cong Ac trans Ci fib]
+28.4 +21.9 68 +37 +38 очень
душно
1012.3 1009.6
15 14.06 ЮВ 5 20 км в посл. час дождь 9/4 360 м
[Cu med, cong Ac trans Ci fib]
+30.0 +23.4 68 +41 +42 опасность
перегрева
1012.5 1009.9
18 14.06 З 2 20 км {дождь} 8/3 1200 м
[Cu hum Ci fib]
+27.8 +23.6 78 +38 +38 очень
душно
1014.1 1011.4 +31.6 0.0
21 14.06 З 5 15 км 4/0
[Ci sp]
+22.0 +20.8 93 +28 +28 душно 1016.8 1014.1
00 15.06 СЗ 2 15 км ясно +20.0 +18.7 92 +24 +24 комфорт 1017.0 1014.3
03 15.06 СЗ 3 15 км ясно +19.0 +17.3 90 +21 +21 комфорт 1016.1 1013.3
06 15.06 С 6 12 км 8/5 450 м
[Sc diur, vesp As trans]
+21.0 +19.1 89 +26 +26 душно 1016.4 1013.6 +18.6
09 15.06 СЗ 3 15 км 4/0
[As trans]
+26.4 +22.7 80 +35 +44 очень
душно
1016.7 1014.0
12 15.06 ЮВ 5 15 км 4/0
[As trans]
+30.6 +25.0 72 +44 +53 опасность
перегрева
1016.3 1013.6
15 15.06 СЗ 6 15 км 6/0
[Ci fib]
+30.2 +24.6 72 +43 +47 опасность
перегрева
1016.0 1013.3
18 15.06 ЮВ 4 30 км 4/0
[Ci fib]
+27.0 +24.1 84 +37 +38 очень
душно
1015.9 1013.2 +32.2
21 15.06 В 1 20 км ясно +22.0 +20.7 92 +28 +28 душно 1016.8 1014.1
00 16.06 С 2 20 км 1/0
[Ci fib]
+21.0 +19.3 90 +26 +26 душно 1017.2 1014.4
03 16.06 С 3 20 км 3/1 180 м
[St Ci fib]
+20.0 +18.1 89 +23 +23 комфорт 1016.5 1013.8
06 16.06 С 6 12 км 3/3 360 м
[Cu hum]
+20.8 +18.7 88 +25 +26 комфорт 1017.3 1014.6 +19.8
09 16.06 СЗ 5 15 км ясно +25.2 +21.1 78 +32 +41 очень
душно
1017.2 1014.5
12 16.06 С 4 20 км 3/0
[Ci fib]
+31.0 +13.8 35 +32 +45 жарко 1015.7 1013.0
15 16.06 Ю 4 20 км 3/0
[Ci fib]
+29.8 +23.5 69 +40 +47 очень
душно
1015.7 1013.0
18 16.06 С 5 15 км 5/0
[Ci fib]
+26.0 +19.4 67 +31 +32 очень
душно
1015.5 1012.8 +32.4
21 16.06 С 4 15 км 5/0
[Ci fib]
+21.8 +19.4 86 +27 +27 душно 1015.8 1013.0
00 17.06 С 4 12 км 5/0
[Ci fib]
+19.8 +18.6 93 +23 +23 комфорт 1015.8 1013.0
03 17.06 С 3 15 км 5/0
[Ci fib]
+19.0 +17.3 90 +21 +21 комфорт 1015.2 1012.4
06 17.06 СЗ 4 25 км 3/1 600 м
[Cu hum Ci fib]
+19.4 +17.5 89 +21 +23 комфорт 1015.9 1013.1 +17.8
09 17.06 СЗ 5 25 км 5/1 600 м
[Cu hum Ci fib]
+24.8 +17.8 65 +29 +36 душно 1015.9 1013.2
12 17.06 З 2 25 км 4/1 900 м
[Sc Ci fib]
+31.2 +11.1 29 +31 +50 жарко 1015.1 1012.4
15 17.06 Ю 3 25 км 6/1 600 м
[Cu hum Ci fib]
+29.8 +18.9 52 +35 +42 очень
душно
1013.6 1010.9
18 17.06 С 3 25 км 6/0
[Ci sp]
+25.2 +18.9 68 +30 +30 душно 1013.9 1011.2 +31.6
21 17.06 С 4 20 км 3/0
[Ci fib]
+21.0 +19.7 92 +26 +26 душно 1015.7 1013.0
00 18.06 СЗ 2 10 км ясно +19.4 +17.7 90 +22 +22 комфорт 1015.3 1012.5
03 18.06 С 2 12 км ясно +17.0 +15.4 90 +17 +17 1014.9 1012.1
06 18.06 СЗ 3 12 км ясно +19.2 +17.2 88 +21 +24 комфорт 1015.0 1012.2 +16.6
09 18.06 З 2 20 км ясно +27.2 +20.5 67 +34 +50 очень
душно
1015.5 1012.8
12 18.06 ЮВ 5 20 км ясно +30.4 +16.8 44 +34 +44 очень
душно
1014.7 1012.1
15 18.06 ЮВ 5 20 км ясно +30.2 +19.3 52 +36 +41 очень
душно
1014.7 1012.0
18 18.06 ЮВ 3 25 км ясно +28.2 +20.5 63 +35 +35 очень
душно
1014.5 1011.8 +31.6
21 18.06 С 1 18 км ясно +22.4 +20.0 86 +29 +29 очень
душно
1014.3 1011.5
00 19.06 С 2 15 км ясно +19.6 +19.0 96 +23 +23 комфорт 1014.9 1012.1
03 19.06 С 1 15 км ясно +17.8 +14.7 82 +19 +19 1014.4 1011.6
06 19.06 З 1 18 км ясно +20.8 +19.1 90 +27 +30 душно 1014.8 1012.0 +17.6
09 19.06 Ю 4 18 км 4/0
[Ci fib]
+30.8 +19.8 52 +37 +47 очень
душно
1014.2 1011.6
12 19.06 ЮВ 6 18 км 5/0
[Ci fib]
+31.0 +23.1 63 +41 +49 опасность
перегрева
1014.5 1011.8
15 19.06 ЮВ 6 20 км 3/0
[Ci fib]
+31.4 +15.4 38 +34 +37 душно 1013.9 1011.2
18 19.06 ЮВ 5 20 км 3/0
[Ci fib]
+29.2 +17.7 50 +34 +34 очень
душно
1013.5 1010.8 +33.0
21 19.06 С 2 20 км ясно +23.0 +19.0 78 +29 +29 очень
душно
1014.7 1012.0
00 20.06 СЗ 1 20 км ясно +18.8 +16.0 84 +21 +21 комфорт 1014.1 1011.3
03 20.06 В 1 20 км ясно +17.8 +16.7 93 +19 +19 1013.7 1011.0
06 20.06 З 1 30 км 8/0
[Ci fib]
+20.6 +17.4 82 +26 +29 душно 1013.6 1010.9 +16.2

 

Местоположение метеостанции Дечимоманну (Италия): широта 39.35 долгота 8.97 высота над уровнем моря 28 м.

В архиве по умолчанию представлена погода в Дечимоманну за последнюю неделю. Архивные данные за месяц целиком и за предыдущие месяцы, начиная с января 2011 года, Вы можете получить, выбрав интересующий диапазон дат из раскрывающегося списка и нажав кнопку "Ввод!".


*Определитесь, кто Вы:
робот инопланетянин человек

Внимание! Время в таблицах - всемирное. Для получения местного времени необходимо прибавить поправку, которая равна 1 ч.

Смотрите также архив погоды в соседних городах и на ближайших метеорологических станциях:

Погода на Капо Карбонара (Италия) (55 км)
Погода на Капо Фраска (Италия) (62 км)
Погода на Капо Беллависто (Италия) (91 км)
Погода на Капо Кацция (Италия) (152 км)
Погода в Альгеро (Италия) (154 км)
Погода в Ольвии (Италия) (179 км)
Погода на Мысе Пертюзато (Франция) (225 км)
Погода в Фигари (Франция) (239 км)
Погода в Бизерте (Тунис) (245 км)
Погода в Табарке (Тунис) (268 км)

Пояснения к столбцам:

Ветер - указаны скорость ветра в м/с - средняя за 10 мин, порывы в срок и между сроками (в фигурных скобках) и направление, откуда дует ветер: С - северный, СВ - северо-восточный, В - восточный, ЮВ - юго-восточный, Ю - южный, ЮЗ - юго-западный, З - западный, СЗ - северо-западный.
Видимость - горизонтальная дальность видимости в метрах или километрах. При видимости от 1 до 10 км при отсутствии осадков обычно наблюдается дымка, при ухудшении видимости до 1 км и менее - туман. В сухую погоду видимость может ухудшаться дымом, пылью или мглою.
Явления - указаны атмосферные явления, наблюдавшиеся в срок или в последний час перед сроком; фигурными скобками обозначены явления, наблюдавшиеся между сроками (за 1-3 часа до срока); квадратными скобками обозначены град или гололедные отложения с указанием их диаметра в мм.
Облачность - указаны через наклонную черту общая и нижняя облачность в баллах и высота нижней границы облаков в метрах; квадратными скобками обозначены формы облаков: Ci - перистые, Cs - перисто-слоистые, Cc - перисто-кучевые, Ac - высококучевые, As - высокослоистые, Sc - слоисто-кучевые, Ns - слоисто-дождевые, Cu - кучевые, Cb - кучево-дождевые. Подробнее классификацию облаков см. в Атласе облаков (PDF).
T - Температура воздуха - температура, измеренная на высоте 2 м над землей.
Td - Температура точки росы - температура, при понижении до которой содержащийся в воздухе водяной пар достигнет насыщения.
f - Относительная влажность воздуха - влажноcть воздуха, измеренная на высоте 2 м над землей.
Te - Эффективная температура - температура, которую ощущает одетый по сезону человек в тени. Характеристика душности погоды. При расчете учитывается влияние влажности воздуха и скорости ветра на теплоощущения человека.
Tes - Эффективная температура на солнце - температура, которую ощущает человек, с поправкой на солнечный нагрев. Характеристика знойности погоды. Зависит от высоты солнца над горизонтом, облачности и скорости ветра. Ночью, в пасмурную погоду, а также при ветре 12 м/с и более поправка равна нулю.
P - Атмосферное давление - приведенное к уровню моря атмосферное давление.
Po - Атмосферное давление - измеренное на уровне метеостанции атмосферное давление.
Tmin - Минимальная температура - минимум температуры воздуха на высоте 2 м над землей.
Tmax - Максимальная температура - максимум температуры воздуха на высоте 2 м над землей.
R - Количество осадков - Количество выпавших осадков за период времени, мм. При наведении курсора мыши на число - период времени, за который выпало указанное количество осадков.
R24 - Количество осадков - Количество выпавших осадков за 24 часа, мм.
S - Снежный покров - Высота снежного покрова, см. При наведении курсора мыши на число - состояние снежного покрова и степень покрытия местности в баллах.